Flag for Argentina Weather past 2 weeks in Tucumán, Tucumán, Argentina

Now
63 °F

Partly cloudy.


Feels Like: 63 °F
Forecast: 48 / 67 °F
Wind: 12 mph from Northeast

Location: Tucuman Aerodrome

Current Time: May 28, 2015 at 10:04:48 PM

Latest Report: May 28, 2015 at 9:00 PM


Visibility: N/A

Pressure: 29.98 "Hg

Humidity: 83%

Dew point: 57 °F

Location of TucumánLocation

Historic Weather in Tucumán — Graph

°F

Tucumán temperature yesterday

Maximum temperature yesterday: 64 °F (at 5:00 PM)
Minimum temperature yesterday: 59 °F (at 12:00 AM)
Average temperature yesterday: 61 °F

Past Weeks' High & Low Weather Summary

 TemperatureHumidityPressure
High86 °F (May 20, 5:00 PM)100% (May 24, 12:05 AM)30.24 "Hg (May 24, 12:05 AM)
Low52 °F (May 25, 1:00 AM)46% (May 20, 5:00 PM)29.77 "Hg (May 21, 4:00 PM)
Average65 °F82%30.01 "Hg
* Reported May 13 9:00 PM — May 28 9:00 PM, Tucumán, Weather by CustomWeather, © 2015

Note: Actual official high and low records may vary slightly from our data, if they occured in-between our weather recording intervals... More about our weather records

Advertising

Tucumán weather history for previous 24 hours

 ConditionsComfort  
Time TempWeatherWind HumidityBarometerVisibility
9:00 PM
Thu, May 28
63 °FPartly cloudy.12 mph83%29.98 "HgN/A
8:00 PM64 °FPartly cloudy.12 mph78%29.98 "HgN/A
7:00 PM64 °FPassing clouds.2 mph78%29.98 "HgN/A
6:00 PM68 °FPassing clouds.14 mph69%29.98 "HgN/A
5:00 PM70 °FScattered clouds.14 mph64%30.01 "HgN/A
4:00 PM70 °FScattered clouds.14 mph60%30.01 "HgN/A
3:00 PM70 °FScattered clouds.9 mph64%30.07 "HgN/A
2:00 PM68 °FScattered clouds.12 mph64%30.09 "HgN/A
1:00 PM70 °FPassing clouds.9 mph64%30.12 "HgN/A
12:00 PM66 °FPassing clouds.12 mph68%30.18 "HgN/A
11:00 AM66 °FPassing clouds.9 mph68%30.18 "HgN/A
10:00 AM61 °FPartly sunny.5 mph83%30.18 "Hg6 mi
9:00 AM57 °FPartly sunny.7 mph88%30.21 "Hg5 mi
8:00 AM55 °FPartly sunny.2 mph94%30.21 "HgN/A
7:00 AM55 °FScattered clouds.9 mph88%30.18 "HgN/A
6:00 AM55 °FPassing clouds.5 mph88%30.18 "HgN/A
5:00 AM57 °FPassing clouds.5 mph88%30.18 "HgN/A
4:00 AM59 °FOvercast.5 mph94%30.18 "Hg5 mi
3:00 AM59 °FOvercast.No wind94%30.21 "Hg5 mi
2:00 AM59 °FOvercast.7 mph88%30.21 "Hg5 mi
1:00 AM59 °FPassing clouds.5 mph88%30.24 "Hg5 mi
12:00 AM59 °FPassing clouds.7 mph88%30.24 "Hg5 mi
11:00 PM
Wed, May 27
61 °FPassing clouds.5 mph94%30.21 "Hg4 mi
10:00 PM61 °FPartly cloudy.No wind94%30.21 "Hg4 mi
Weather by CustomWeather, © 2015

See weather overviewHow to use our weather pages